Weather History for Jamestown, NY

Change the Weather History Date:

Friday, November 25, 2011

  Actual Average Record
Temperature  
Mean Temperature 46 °F -  
Max Temperature 57 °F 40 °F 60 °F (2001)
Min Temperature 35 °F 24 °F 9 °F (1981)
Degree Days  
Heating Degree Days 19    
Moisture  
Dew Point 32 °F    
Average Humidity 66    
Maximum Humidity 93    
Minimum Humidity 38    
Precipitation  
Precipitation 0.00 in - - ()
Sea Level Pressure  
Sea Level Pressure 30.11 in    
Wind  
Wind Speed 11 mph (SSW)    
Max Wind Speed 16 mph    
Max Gust Speed 24 mph    
Visibility 10 miles    
Events      
Averages and records for this station are not official NWS values.
T = Trace of Precipitation, MM = Missing Value Source: NWS Daily Summary

Daily Weather History Graph

Daily Weather History Graph

Search for Another Location

Airport:

Trip Planner

Search our weather history database for the weather conditions in past years. The results will help you decide how hot, cold, wet, or windy it might be!

Date:

Astronomy

Nov. 25, 2011 Rise Set
Actual Time 7:18 AM EST 4:48 PM EST
Civil Twilight 6:48 AM EST 5:19 PM EST
Nautical Twilight 6:13 AM EST 5:53 PM EST
Astronomical Twilight 5:40 AM EST 6:27 PM EST
Moon 7:46 AM EST (11/25) 5:13 PM EST (11/25)
Length of Visible Light 10h 31m
Length of Day
9h 29m
New Moon, 0% of the Moon is Illuminated
Nov 25
New Moon
Dec 2
First Quarter
Dec 10
Full
Dec 17
Last Quarter
Dec 24
New

Hourly Weather History & Observations

Time (EST) Temp. Windchill Dew Point Humidity Pressure Visibility Wind Dir Wind Speed Gust Speed Precip Events Conditions
12:15 AM 35.6 °F 28.0 °F 30.2 °F 81% 30.16 in 10.0 mi SW 10.4 mph - N/A   Clear
12:55 AM 35.6 °F 27.5 °F 30.2 °F 81% 30.15 in 10.0 mi SW 11.5 mph - N/A   Clear
1:15 AM 35.6 °F 28.0 °F 30.2 °F 81% 30.15 in 10.0 mi SW 10.4 mph - N/A   Clear
1:55 AM 35.6 °F 28.0 °F 32.0 °F 87% 30.15 in 10.0 mi SW 10.4 mph - N/A   Clear
2:15 AM 35.6 °F 27.5 °F 30.2 °F 81% 30.15 in 10.0 mi SSW 11.5 mph - N/A   Clear
2:35 AM 35.6 °F 27.1 °F 32.0 °F 87% 30.15 in 10.0 mi SSW 12.7 mph - N/A   Clear
3:15 AM 35.6 °F 27.5 °F 32.0 °F 87% 30.15 in 10.0 mi SSW 11.5 mph - N/A   Clear
3:35 AM 35.6 °F 27.5 °F 30.2 °F 81% 30.15 in 10.0 mi SSW 11.5 mph - N/A   Clear
3:55 AM 35.6 °F 27.5 °F 32.0 °F 87% 30.15 in 10.0 mi SSW 11.5 mph - N/A   Clear
4:15 AM 35.6 °F 27.5 °F 32.0 °F 87% 30.15 in 10.0 mi SSW 11.5 mph - N/A   Clear
4:35 AM 35.6 °F 28.0 °F 32.0 °F 87% 30.15 in 9.0 mi SSW 10.4 mph - N/A   Clear
5:35 AM 35.6 °F 28.0 °F 32.0 °F 87% 30.15 in 8.0 mi SSW 10.4 mph - N/A   Clear
5:55 AM 35.6 °F 28.0 °F 33.8 °F 93% 30.15 in 8.0 mi South 10.4 mph - N/A   Clear
6:15 AM 35.6 °F 28.0 °F 32.0 °F 87% 30.15 in 8.0 mi South 10.4 mph - N/A   Clear
6:35 AM 35.6 °F 28.0 °F 33.8 °F 93% 30.15 in 8.0 mi South 10.4 mph - N/A   Clear
6:55 AM 35.6 °F 28.0 °F 33.8 °F 93% 30.15 in 8.0 mi South 10.4 mph - N/A   Clear
7:15 AM 35.6 °F 28.0 °F 33.8 °F 93% 30.14 in 7.0 mi South 10.4 mph - N/A   Clear
7:35 AM 35.6 °F 28.0 °F 33.8 °F 93% 30.14 in 6.0 mi South 10.4 mph - N/A   Clear
7:55 AM 35.6 °F 28.6 °F 33.8 °F 93% 30.15 in 7.0 mi SSW 9.2 mph - N/A   Clear
8:15 AM 37.4 °F 30.3 °F 33.8 °F 87% 30.15 in 10.0 mi South 10.4 mph - N/A   Clear
8:55 AM 37.4 °F 30.3 °F 33.8 °F 87% 30.15 in 10.0 mi SSW 10.4 mph - N/A   Clear
9:15 AM 39.2 °F 33.6 °F 35.6 °F 87% 30.15 in 10.0 mi SSW 8.1 mph - N/A   Clear
9:35 AM 42.8 °F 36.2 °F 35.6 °F 76% 30.15 in 10.0 mi SSW 12.7 mph - N/A   Clear
9:55 AM 42.8 °F 36.6 °F 35.6 °F 76% 30.15 in 10.0 mi SSW 11.5 mph - N/A   Clear
10:15 AM 44.6 °F 38.4 °F 35.6 °F 71% 30.15 in 10.0 mi SSW 12.7 mph 16.1 mph N/A   Clear
10:35 AM 46.4 °F 41.1 °F 35.6 °F 66% 30.15 in 10.0 mi SSW 11.5 mph 17.3 mph N/A   Clear
10:55 AM 46.4 °F 41.1 °F 35.6 °F 66% 30.14 in 10.0 mi SSW 11.5 mph - N/A   Clear
11:15 AM 48.2 °F - 35.6 °F 62% 30.14 in 10.0 mi SSW 12.7 mph 17.3 mph N/A   Clear
11:55 AM 50.0 °F - 35.6 °F 58% 30.11 in 10.0 mi South 11.5 mph - N/A   Clear
12:15 PM 51.8 °F - 35.6 °F 54% 30.11 in 10.0 mi SSW 12.7 mph 18.4 mph N/A   Clear
12:35 PM 51.8 °F - 35.6 °F 54% 30.10 in 10.0 mi SSW 10.4 mph - N/A   Clear
12:55 PM 53.6 °F - 35.6 °F 51% 30.09 in 10.0 mi SW 12.7 mph 19.6 mph N/A   Clear
1:35 PM 55.4 °F - 33.8 °F 44% 30.08 in 10.0 mi SW 12.7 mph 17.3 mph N/A   Clear
1:55 PM 55.4 °F - 33.8 °F 44% 30.07 in 10.0 mi SSW 15.0 mph 20.7 mph N/A   Clear
2:35 PM 55.4 °F - 33.8 °F 44% 30.06 in 10.0 mi SSW 9.2 mph 17.3 mph N/A   Clear
2:55 PM 57.2 °F - 32.0 °F 38% 30.06 in 10.0 mi SW 16.1 mph 20.7 mph N/A   Clear
3:15 PM 55.4 °F - 32.0 °F 41% 30.06 in 10.0 mi SW 16.1 mph 24.2 mph N/A   Clear
3:35 PM 55.4 °F - 32.0 °F 41% 30.06 in 10.0 mi SSW 10.4 mph 19.6 mph N/A   Clear
4:15 PM 53.6 °F - 30.2 °F 41% 30.06 in 10.0 mi SSW 10.4 mph 19.6 mph N/A   Clear
4:35 PM 53.6 °F - 30.2 °F 41% 30.05 in 10.0 mi SSW 10.4 mph - N/A   Clear
4:55 PM 51.8 °F - 30.2 °F 44% 30.05 in 10.0 mi SSW 11.5 mph 19.6 mph N/A   Clear
5:15 PM 51.8 °F - 30.2 °F 44% 30.06 in 10.0 mi SSW 10.4 mph 17.3 mph N/A   Clear
5:35 PM 51.8 °F - 30.2 °F 44% 30.06 in 10.0 mi SSW 10.4 mph - N/A   Clear
5:55 PM 50.0 °F - 30.2 °F 47% 30.06 in 10.0 mi South 6.9 mph - N/A   Clear
6:15 PM 48.2 °F - 30.2 °F 50% 30.07 in 10.0 mi SSW 9.2 mph - N/A   Clear
6:35 PM 48.2 °F - 30.2 °F 50% 30.06 in 10.0 mi South 9.2 mph - N/A   Clear
6:55 PM 48.2 °F - 30.2 °F 50% 30.07 in 10.0 mi SSW 9.2 mph - N/A   Clear
7:15 PM 48.2 °F - 30.2 °F 50% 30.07 in 10.0 mi South 9.2 mph - N/A   Clear
7:35 PM 46.4 °F 41.5 °F 30.2 °F 53% 30.07 in 10.0 mi South 10.4 mph - N/A   Clear
7:55 PM 46.4 °F 41.9 °F 30.2 °F 53% 30.06 in 10.0 mi South 9.2 mph - N/A   Clear
8:35 PM 46.4 °F 41.1 °F 30.2 °F 53% 30.08 in 10.0 mi SSW 11.5 mph - N/A   Clear
8:55 PM 46.4 °F 41.1 °F 30.2 °F 53% 30.08 in 10.0 mi SSW 11.5 mph 17.3 mph N/A   Clear
9:15 PM 48.2 °F - 30.2 °F 50% 30.08 in 10.0 mi SSW 9.2 mph - N/A   Clear
9:35 PM 46.4 °F 41.9 °F 30.2 °F 53% 30.09 in 10.0 mi South 9.2 mph - N/A   Clear
9:55 PM 46.4 °F 42.9 °F 30.2 °F 53% 30.09 in 10.0 mi SSW 6.9 mph - N/A   Clear
10:15 PM 46.4 °F 42.9 °F 32.0 °F 57% 30.10 in 10.0 mi South 6.9 mph - N/A   Clear
10:35 PM 44.6 °F 40.7 °F 30.2 °F 57% 30.09 in 10.0 mi South 6.9 mph - N/A   Clear
10:55 PM 44.6 °F 39.7 °F 32.0 °F 61% 30.09 in 10.0 mi South 9.2 mph - N/A   Clear
11:15 PM 44.6 °F 39.7 °F 32.0 °F 61% 30.09 in 10.0 mi South 9.2 mph - N/A   Clear
11:35 PM 44.6 °F 39.7 °F 32.0 °F 61% 30.09 in 10.0 mi South 9.2 mph - N/A   Clear
11:55 PM 44.6 °F 40.2 °F 32.0 °F 61% 30.09 in 10.0 mi South 8.1 mph - N/A   Clear